Погода в Невонке

Россия / Красноярский край     58°25′24″N   98°19′19″E
темп.,
°C
ветер,
м/с
пор.,
м/с
влажн.,
%
обл.,
%
осадки,
мм/ч
давл.,
гПа
погр.,
м
9 мая, вс
вс901:00+2сз1195100 0.1 101110
04:00+1с1196100 0.0 101110
07:00+4ссв2394100 0.0 1011322
10:00+5св2489100 0.1 1012637
13:00+6ссв3482100 0.2 1013824
16:00+7ссв3479100 0.2 1014827
19:00+6с2587100 0.2 1015299
22:00+4сз2498100 0.0 1017116
10 мая, пн
пн1001:00+2ссз22976 0.1 101723
04:00+1ссз22965 0.0 101826
07:00+5ссв26835 0.0 1020309
10:00+10ссв35635 0.0 1020927
13:00+12св365175 0.3 10201655
16:00+13св364375 0.1 10202062
19:00+10с256787 0.2 1021230
22:00+6ссз118830 0.1 102110
11 мая, вт
вт1101:00+5ссз119169 0.1 102110
04:00+4с119399 0.0 102110
07:00+7с1280100 0.0 1020212
10:00+9св2372100 0.1 1020927
13:00+9ссв3474100 0.1 1020860
16:00+9св4468100 0.2 10191100
19:00+6ссв4686100 0.2 1021626
22:00+4ссв3890100 0.1 1022579
12 мая, ср
ср1201:00+4св4989100 0.1 1022723
04:00+1ссв249622 0.0 1022163
07:00+3св36632 0.0 1023394
10:00+7св45418 0.0 10221706
13:00+10ссв353497 0.0 10212212
16:00+11ссв343288 0.0 10202323
19:00+9с25425 0.0 1020269
22:00+4с11615 0.0 102210
13 мая, чт
чт1301:00+2зсз11661 0.0 102210
04:00+1зюз11693 0.0 102210
07:00+7юз12510 0.0 1022217
10:00+12з34354 0.0 10201904
13:00+14з453021 0.0 10172318
16:00+15з462899 0.0 10152520
19:00+13зюз3838100 0.0 1013457
22:00+7юз31057100 0.0 1013217